#timestamp,LO_Frequency,Hit,StdDev 
1503925215.6,286047002.2,N,1.1
1503925235.5,286047001.8,N,1.1
1503925255.3,286047001.4,N,1.1
1503925275.1,286047002.8,N,1.1
1503925295.9,286047003.9,Y,0.0
1503925315.7,286047002.8,P,0.6
1503925335.5,286047002.3,P,0.5
1503925355.4,286047002.2,P,0.4
1503925375.2,286046999.9,N,1.0
1503925395.0,286047002.6,N,1.0
1503925395.9,286047002.6,N,0.9
1503925415.8,286047000.1,N,1.1
1503925435.6,286047000.2,N,1.1
1503925455.4,286047002.4,N,1.1
1503925475.3,286046999.7,N,1.2
1503925495.1,286047002.6,N,1.2
1503925496.0,286047002.6,N,1.2
1503925515.8,286047002.3,N,1.1
1503925535.7,286047002.7,N,1.1
1503925555.5,286047002.3,N,1.1
1503925575.3,286046999.7,N,1.2
1503925595.2,286047000.1,N,1.2
1503925615.9,286047000.1,N,1.2
1503925635.7,286047001.8,N,1.2
1503925655.6,286047002.7,N,1.2
1503925675.4,286047002.1,N,1.2
1503925695.2,286047002.3,N,1.1
1503925715.1,286047001.6,N,1.1
1503925716.0,286047001.6,N,1.1
1503925735.8,286047002.2,N,1.1
1503925755.6,286047004.4,Y,0.0
1503925775.5,286047000.2,P,0.7
1503925795.3,286047000.3,N,0.7
1503925815.1,286047000.4,N,0.6
1503925835.9,286047000.4,N,0.5
1503925855.7,286047000.2,N,0.5
1503925875.5,286046999.9,N,0.5
1503925895.4,286046999.9,N,0.5
1503925915.2,286047000.3,N,0.5
1503925935.0,286047002.6,Y,0.0
1503925935.9,286047002.6,P,1.1
1503925955.8,286046999.7,N,1.2
1503925975.6,286047002.0,N,1.2
1503925995.4,286047002.6,N,1.2
1503926015.3,286047002.3,N,1.1
1503926035.1,286047002.2,N,1.1
1503926036.0,286047002.2,N,1.0
1503926055.8,286047002.6,N,1.0
1503926075.7,286046999.7,N,1.1
1503926095.5,286046999.7,N,1.2
1503926115.3,286046999.8,N,1.3
1503926135.1,286047001.9,N,1.2
1503926155.9,286047001.4,N,1.2
1503926175.7,286047001.5,N,1.1
1503926195.5,286047002.1,N,1.1
1503926215.4,286047001.7,N,1.1
1503926235.2,286047001.5,N,1.1
1503926255.0,286047004.0,Y,0.0
1503926255.9,286047004.0,P,1.3
1503926275.8,286047001.0,N,1.3
1503926295.6,286047000.5,N,1.3
1503926315.4,286047000.8,N,1.3
1503926335.3,286047000.5,N,1.2
1503926355.1,286047002.8,N,1.2
1503926375.8,286047002.0,N,1.2
1503926395.7,286047002.1,N,1.1
1503926415.5,286047002.5,N,1.1
1503926435.3,286047002.4,N,1.0
1503926455.2,286047001.9,N,1.0
1503926475.9,286047002.6,N,1.0
1503926495.7,286047002.6,N,1.0
1503926515.6,286047002.3,N,0.9
1503926535.4,286047000.3,N,1.0
1503926555.2,286046999.8,N,1.1
1503926575.1,286046999.9,N,1.1
1503926576.0,286046999.9,N,1.2
1503926595.8,286047000.4,N,1.2
1503926615.6,286047002.8,N,1.2
1503926635.5,286047002.4,N,1.2
1503926655.3,286047002.5,N,1.1
1503926675.1,286047002.1,N,1.1
1503926695.9,286047002.0,N,1.1
1503926715.7,286047002.1,N,1.1
1503926735.5,286047002.3,N,1.1
1503926755.4,286047002.7,N,1.1
1503926775.2,286046999.7,N,1.1
1503926795.0,286047000.2,N,1.1
1503926795.9,286047000.2,N,1.2
1503926815.8,286047002.7,N,1.1
1503926835.6,286047000.1,N,1.1
1503926855.4,286047002.6,N,1.1
1503926875.2,286047002.1,N,1.1
1503926895.1,286047002.7,N,1.1
1503926896.0,286047002.7,N,1.1
1503926915.8,286047001.9,N,1.1
1503926935.6,286047004.4,Y,0.0
1503926955.5,286047000.2,P,0.7
1503926975.3,286046999.8,N,0.8
1503926995.1,286047000.1,N,0.7
1503927015.9,286047000.4,N,0.7
1503927035.7,286047000.9,N,0.6
1503927055.5,286046999.9,N,0.6
1503927075.4,286047000.4,N,0.6
1503927095.2,286047001.0,N,0.6
1503927115.0,286047000.0,N,0.6
1503927115.9,286047000.0,N,0.5
1503927135.8,286046999.9,N,0.5
1503927155.6,286047000.9,N,0.5
1503927175.4,286046998.2,Y,0.0
1503927195.3,286047001.0,P,0.3
1503927215.1,286047001.1,P,0.3
1503927235.8,286047000.0,N,0.4
1503927255.7,286047000.8,N,0.4
1503927275.5,286047000.5,N,0.4
1503927295.3,286047000.7,N,0.4
1503927315.2,286047000.5,N,0.3
1503927335.0,286047000.6,N,0.3
1503927335.9,286047000.6,N,0.3
1503927355.7,286047000.4,N,0.3
1503927375.6,286047001.0,Y,0.0
1503927395.4,286046998.1,P,1.2
1503927415.2,286047000.9,N,1.3
1503927435.1,286046998.5,N,1.2
1503927436.0,286046998.5,N,1.2
1503927455.8,286047000.6,N,1.2
1503927475.6,286047000.9,N,1.2
1503927495.5,286047001.2,N,1.2
1503927515.3,286046998.5,N,1.2
1503927535.1,286047001.0,N,1.2
1503927555.9,286047001.0,N,1.2
1503927575.7,286047000.9,N,1.2
1503927595.5,286047001.0,N,1.2
1503927615.4,286047000.7,N,1.1
1503927635.2,286047000.2,N,1.1
1503927655.0,286047001.0,N,1.1
1503927655.9,286047001.0,N,1.1
1503927675.8,286047001.0,N,1.0
1503927695.6,286046999.7,N,1.0
1503927715.4,286047000.6,N,1.0
1503927735.3,286047000.5,N,1.0
1503927755.1,286047000.9,N,1.0
1503927756.0,286047000.9,N,1.0
1503927775.8,286047000.9,N,0.9
1503927795.7,286047001.1,N,0.9
1503927815.5,286047000.6,N,0.9
1503927835.3,286047000.1,N,0.9
1503927855.2,286047000.4,N,0.9
1503927875.9,286046999.7,N,0.9
1503927895.7,286047001.9,N,0.9
1503927915.6,286047002.1,N,1.0
1503927935.4,286047002.7,N,0.9
1503927955.2,286047002.8,N,1.0
1503927975.1,286047000.2,N,0.9
1503927976.0,286047000.2,N,0.8
1503927995.8,286047000.6,N,0.8
1503928015.6,286047000.4,N,0.8
1503928035.5,286047000.8,N,0.8
1503928055.3,286047000.3,N,0.7
1503928075.1,286047000.8,N,0.7
1503928095.9,286047001.2,N,0.7
1503928115.7,286047001.0,N,0.7
1503928135.5,286047001.1,N,0.7
1503928155.3,286047001.0,N,0.7
1503928175.2,286047002.1,N,0.7
1503928195.0,286047001.9,N,0.8
1503928195.9,286047001.9,N,0.8
1503928215.7,286047002.2,N,0.8
1503928235.6,286047000.2,N,0.8
1503928255.4,286047000.4,N,0.8
1503928275.2,286047001.1,N,0.8
1503928295.1,286047000.4,N,0.8
1503928296.0,286047000.4,N,0.8
1503928315.8,286047000.1,N,0.8
1503928335.6,286047000.1,N,0.8
1503928355.5,286047002.5,N,0.9
1503928375.3,286047000.1,N,0.9
1503928395.1,286046999.7,N,0.9
1503928415.9,286047002.3,N,0.9
1503928435.7,286047002.8,Y,0.0
1503928455.5,286046998.5,P,1.3
1503928475.4,286046998.7,N,1.2
1503928495.2,286046998.5,N,1.1
1503928515.0,286046998.3,N,1.0
1503928515.9,286046998.3,N,1.0
1503928535.8,286046998.3,N,0.9
1503928555.6,286047000.8,N,1.1
1503928575.4,286047001.2,N,1.2
1503928595.3,286046999.3,N,1.2
1503928615.1,286047000.7,N,1.2
1503928635.8,286046998.5,N,1.2
1503928655.7,286047001.1,N,1.2
1503928675.5,286047001.1,N,1.2
1503928695.3,286047001.2,N,1.3
1503928715.2,286047000.5,N,1.2
1503928735.9,286047000.0,N,1.2
1503928755.7,286047000.7,N,1.2
1503928775.6,286047000.6,N,1.2
1503928795.4,286047000.4,N,1.1
